Flag for U.S.A. Weather past 2 weeks in Portsmouth, Virginia, U.S.A.

Now
61 °F

Clear.


Feels Like: 61 °F
Forecast: 55 / 71 °F
Wind: 7 mph from West

Location: Norfolk Naval Air Station

Current Time: Oct 26, 2014 at 5:51:47 AM

Latest Report: Oct 26, 2014 at 4:59 AM


Visibility: 10 mi

Pressure: 29.73 "Hg

Humidity: 67%

Dew point: 50 °F

Location of PortsmouthLocation

Historic Weather in Portsmouth — Graph

°F

Portsmouth temperature yesterday

Maximum temperature yesterday: 71 °F (at 3:59 PM)
Minimum temperature yesterday: 54 °F (at 12:59 AM)
Average temperature yesterday: 62 °F

Past Weeks' High & Low Weather Summary

 TemperatureHumidityPressure
High83 °F (Oct 14, 1:59 PM)90% (Oct 11, 6:59 AM)30.28 "Hg (Oct 11, 6:59 AM)
Low48 °F (Oct 20, 2:59 AM)28% (Oct 25, 2:59 PM)29.70 "Hg (Oct 18, 1:59 PM)
Average66 °F65%29.96 "Hg
* Reported Oct 11 4:59 AM — Oct 26 4:59 AM, Portsmouth, Weather by CustomWeather, © 2014

Note: Actual official high and low records may vary slightly from our data, if they occured in-between our weather recording intervals... More about our weather records

Advertising

Portsmouth weather history for previous 24 hours

 ConditionsComfort  
Time TempWeatherWind HumidityBarometerVisibility
4:59 AM
Oct 26
61 °FClear.7 mph67%29.73 "Hg10 mi
3:59 AM59 °FClear.6 mph64%29.73 "Hg10 mi
2:59 AM61 °FClear.8 mph58%29.75 "Hg10 mi
1:59 AM61 °FClear.8 mph56%29.75 "Hg10 mi
12:59 AM60 °FClear.7 mph58%29.76 "Hg10 mi
11:59 PM
Oct 25
62 °FClear.13 mph56%29.78 "Hg10 mi
10:59 PM63 °FClear.12 mph54%29.80 "Hg10 mi
9:59 PM63 °FClear.8 mph52%29.83 "Hg10 mi
8:59 PM63 °FClear.7 mph50%29.83 "Hg10 mi
7:59 PM64 °FClear.7 mph47%29.84 "Hg10 mi
6:59 PM64 °FSunny.3 mph45%29.85 "Hg10 mi
5:59 PM68 °FSunny.3 mph36%29.85 "Hg10 mi
4:59 PM71 °FSunny.5 mph31%29.86 "Hg10 mi
3:59 PM71 °FSunny.6 mph31%29.87 "Hg10 mi
2:59 PM70 °FSunny.5 mph28%29.89 "Hg10 mi
1:59 PM69 °FSunny.3 mph36%29.91 "Hg10 mi
12:59 PM69 °FSunny.8 mph38%29.96 "Hg10 mi
11:59 AM68 °FSunny.6 mph42%29.98 "Hg10 mi
10:59 AM66 °FSunny.5 mph47%29.99 "Hg10 mi
9:59 AM63 °FSunny.7 mph54%29.99 "Hg10 mi
8:59 AM61 °FSunny.8 mph58%30.00 "Hg10 mi
7:59 AM57 °FClear.7 mph64%29.99 "Hg10 mi
6:59 AM55 °FPassing clouds.8 mph67%29.98 "Hg10 mi
5:59 AM56 °FClear.8 mph65%29.98 "Hg10 mi
Weather by CustomWeather, © 2014

See weather overviewHow to use our weather pages